Regional Weather Roundup
Issued by NWS

Home | Current Version | Previous Version | Text Only | Print | Product List | Glossary On
Versions: 1 2 3 4 5 6 7 8 9 10 11 12 13 14 15 16 17 18 19 20 21 22 23 24 25 26 27 28 29 30 31 32 33 34 35 36 37 38 39 40 41 42 43 44 45 46 47 48 49
000
ASUS42 KFFC 290103
RWRGA
WEATHER ROUNDUP FOR GEORGIA
NATIONAL WEATHER SERVICE PEACHTREE CITY GA
800 PM EST FRI NOV 28 2014

NOTE: "FAIR" INDICATES FEW OR NO CLOUDS BELOW 12,000 FEET WITH NO
SIGNIFICANT WEATHER AND/OR OBSTRUCTIONS TO VISIBILITY.

* = USE WITH CAUTION. THE STATIONS MARKED WITH AN ASTERISK MAY NOT
REPORT WEATHER SUCH AS PRECIPITATION, FOG, OR THUNDER AND ARE NOT
QUALITY CONTROLLED BY NWS.

THE REMARK "TC" DENOTES TEMPERATURE READING IN DEGREES CELSIUS.

GAZ001>058-290200-
NORTH GEORGIA

CITY           SKY/WX    TMP DP  RH WIND       PRES   REMARKS
ATLANTA        CLEAR     40  19  43 S3        30.28S
ATHENS         CLEAR     36  26  67 CALM      30.29S
CHAMBLEE       CLEAR     37  20  50 CALM      30.28S
PEACHTREE CITY CLEAR     33  27  78 CALM      30.30S
ROME           CLEAR     34  23  64 CALM      30.29R
WEST ATLANTA   CLEAR     36  25  64 CALM      30.29R
GAINESVILLE    CLEAR     39  19  44 SW5       30.28S
CARTERSVILLE   CLEAR     30  21  69 CALM      30.30R


CITY           SKY/WX    TMP DP  RH WIND       PRES   REMARKS
DALTON*        CLEAR     32  25  74 CALM      30.29S
LAWRENCEVILLE* CLEAR     36  19  51 CALM      30.27S
KENNESAW*      CLEAR     34  19  55 CALM      30.30R
$$

GAZ059>098-102>109-290200-
CENTRAL GEORGIA

CITY           SKY/WX    TMP DP  RH WIND       PRES   REMARKS
AUGUSTA-BUSH   CLEAR     33  27  78 CALM      30.33S
AUGUSTA-DANIEL CLEAR     44  23  43 E3        30.33R
COLUMBUS       CLEAR     42  24  49 CALM      30.31S
MACON          CLEAR     35  28  75 CALM      30.32R
ROBINS AFB     CLEAR     39  32  75 CALM      30.32R


CITY           SKY/WX    TMP DP  RH WIND       PRES   REMARKS
LAGRANGE*      CLEAR     37  30  76 CALM      30.30S
SYLVANIA*      CLEAR     38  36  91 CALM      30.35R
MILLEDGEVILLE* CLEAR     36  32  87 CALM      30.32R
$$

GAZ099>101-110>166-290200-
SOUTH GEORGIA

CITY           SKY/WX    TMP DP  RH WIND       PRES   REMARKS
SAVANNAH       CLEAR     42  32  67 CALM      30.34R
VALDOSTA       CLEAR     38  34  85 CALM      30.33S
ALMA           CLEAR     36  34  92 CALM      30.33R
ST SIMONS      CLEAR     40  34  79 CALM      30.34S
FT STEWART     CLEAR     38  34  85 CALM      30.33R
ALBANY         CLEAR     40  33  76 CALM      30.34S
HUNTER AFB     CLEAR     38  34  87 CALM      30.32R
MOODY AFB      CLEAR     39  34  81 CALM      30.33R
BRUNSWICK      CLEAR     37  36  93 CALM      30.35R


CITY           SKY/WX    TMP DP  RH WIND       PRES   REMARKS
BAINBRIDGE*    CLEAR     41  37  87 SE3       30.33R
MOULTRIE*      CLEAR     41  36  81 CALM      30.33S
VIDALIA*       CLEAR     39  34  81 CALM      30.33S
WAYCROSS*      CLEAR     42  39  87 CALM      30.34R
DOUGLAS*       CLEAR     41  36  81 CALM      30.35R
$$


USA.gov is the U.S. government's official web portal to all federal, state and local government web resources and services.